    Observer details:
    130 Lumezzane.  Observers A. Coffano, W. Marinello, M. Micheli, G. Pizzetti,
        A. Soffiantini.  Measurer W. Marinello.  0.40-m f/5.9 reflector + CCD.
    160 Castelmartini.  Observers M. Jaeger, E. Prosperi, S. Prosperi.  Measurer
        E. Prosperi.  0.36-m f/10.2 Schmidt-Cassegrain + CCD.
    203 GiaGa Observatory.  Observers S. Foglia, G. Galli.  Measurer G. Galli.
        0.36-m f/5.76 Schmidt-Cassegrain + CCD.
    204 Schiaparelli Observatory.  Observer L. Buzzi.  0.84-m f/3.5 reflector +
        CCD.
    595 Farra d'Isonzo.  Observers S. Aschi, G. Panterotto, E. Pettarin.
        Measurer E. Pettarin.  0.40-m f/5.15 reflector + CCD.
    958 Observatoire de Dax.  Observer P. Dupouy.  0.32-m f/4.1 Schmidt-
        Cassegrain.
    970 Chelmsford.  Observer N. James.  0.28-m f/10.0 Schmidt-Cassegrain + CCD.
    B49 Paus Observatory, Sabadell.  Observer J. Camarasa.  0.30-m f/4 reflector +
        CCD.
    C77 Bernezzo Observatory.  Observer A. Mantero.  0.25-m f/4.0 reflector + CCD.
    F52 Pan-STARRS 2, Haleakala.  Observers J. Bulger, K. Chambers, T. Dukes, T.
        Lowe, A. Schultz, M. Willman.  Measurers S. Chastel, M. Huber, Y.
        Ramanjooloo, R. Wainscoat, R. Weryk.  1.8-m Ritchey-Chretien + CCD.
    I93 St Pardon de Conques.  Observer F. Losse.  0.40-m f/3.7 reflector + CCD.
    K19 PASTIS Observatory, Banon.  Observer C. Demeautis.  0.16-m f/3.3 reflector
        + CCD.
    K63 G. Pascoli Observatory, Castelvecchio Pascoli.  Observer R. Bacci.  0.4-m
        f/3.2 Newtonian reflector + CCD.
    K83 Beppe Forti Astronomical Observatory, Montelupo.  Observers M. Tombelli,
        M. Lombardo, A. Mazzanti.  Measurers M. Tombelli, F. Bernardi.  0.40-m f/8
        Ritchey-Chretien + CCD.
    K88 GINOP-KHK, Piszkesteto.  Observer K. Sarneczky.  0.60-m Schmidt + CCD.
    L01 Visnjan Observatory, Tican.  Observer K. Korlevic.  1.0-m f/2.9 reflector
        + CCD.
    L07 Osservatorio Salvatore di Giacomo, Agerola.  Observers E. Guido, A.
        Catapano.  0.5-m f/8 Ritchey-Chretien + CCD.
    L34 Galhassin Robotic Telescope, Isnello.  Observers A. Nastasi, M. Lauriano.
        Measurer A. Nastasi.  0.40-m reflector + CCD.
    N88 Xingming Observatory #3, Nanshan.  Observer X. Gao.  Measurer Q.-Z. Ye.
        0.6-m f/8 Ritchey-Chretien + CCD.
    T05 ATLAS-HKO, Haleakala.  Observers L. Denneau, J. Tonry, A. Heinze, H.
        Weiland.  Measurers L. Denneau, J. Tonry, A. Heinze, H. Weiland, H.
        Flewelling, A. Fitzsimmons, J. Robinson, N. Erasmus.  0.5-m reflector +
        CCD.
    Z99 Clixby Observatory, Cleethorpes.  Observer A. Mickleburgh.  0.36-m f/8
        Schmidt-Cassegrain + CCD.
    
    Orbital elements:
    2020 VN1                                                 Earth MOID = 0.0004 AU
    Epoch 2020 Dec. 17.0 TT = JDT 2459200.5                 Veres
    M 136.77422              (2000.0)            P               Q
    n   1.01609530     Peri.  256.39740     +0.51683945     +0.85500359
    a   0.9798955      Node    44.80839     -0.75998693     +0.48134780
    e   0.0641242      Incl.    3.49511     -0.39407722     +0.19306255
    P   0.97           H   27.8           G   0.15           U   5
    Residuals in seconds of arc
    201108 F52  0.1+  0.0     201110 K19  0.5-  0.3+    201110 N88  0.1+  0.4-
    201108 F52  0.1-  0.1-    201110 B49  1.0+  0.9+    201110 N88  0.0   0.4-
    201108 F52  0.1+  0.2+    201110 L34  0.6-  0.1+    201110 204  0.2+  0.1-
    201108 F52  0.1-  0.2-    201110 K19  0.1-  0.1+    201110 Z99  0.3-  0.3+
    201110 T05  0.5-  0.3+    201110 K83  0.2+  0.1+    201110 L07  0.0   0.2+
    201110 T05  0.1-  0.1+    201110 595  0.5+  0.1-    201110 Z99  0.3-  0.3+
    201110 T05 (1.9-  2.0-)   201110 B49  0.2+  0.2-    201110 204  0.1+  0.3-
    201110 T05  0.0   0.2+    201110 K19  0.1+  0.1+    201110 Z99  0.1+  0.5+
    201110 K88  0.5-  0.1-    201110 I93  0.2+  0.3+    201110 Z99  0.4+  0.5+
    201110 K88  0.5+  0.4+    201110 595  0.4-  0.7-    201110 970  0.3-  0.3-
    201110 K88  0.5-  0.2+    201110 I93  0.1+  0.2+    201110 L07  0.1+  0.3+
    201110 K88  0.3-  0.4-    201110 958  0.2+  0.3-    201110 204  0.0   0.2-
    201110 L01  0.1+  0.0     201110 595  0.3-  0.8-    201110 970  0.3-  0.3-
    201110 L01  0.2-  0.0     201110 I93  0.1+  0.2+    201110 970  0.0   0.2-
    201110 L01  0.2+  0.1+    201110 L34  0.2-  0.1-    201110 C77  0.2+  0.1-
    201110 L01  0.1-  0.1+    201110 958  0.2-  0.2-    201110 L07  0.2+  0.1+
    201110 L01  0.1-  0.0     201110 958  0.6+  0.5-    201110 K63  0.3+  0.6+
    201110 L01  0.0   0.1+    201110 L34  0.4-  0.5+    201110 C77  0.2-  0.2-
    201110 K19  0.3+  0.3+    201110 160  0.0   0.2-    201110 K63  0.0   0.4-
    201110 K83  0.1+  0.5-    201110 160  0.1+  0.3-    201110 C77  0.1-  0.0
    201110 K19  0.2+  0.1+    201110 160  0.1-  0.6-    201110 K63  0.2+  0.2-
    201110 K83  0.1+  0.2+    201110 160  0.1-  0.4-    201110 130  0.0   0.5+
    201110 K19  0.3+  0.9+    201110 160  0.1+  0.0     201110 130  0.1-  0.2+
    201110 B49  0.9-  0.4-    201110 N88  0.2-  0.0     201110 203  0.2+  0.2-
    201110 B49  0.1-  0.1+    201110 N88  0.5+  0.7+    201110 203  0.1+  0.1-
    201110 K83  0.0   0.2-    201110 N88  0.1+  0.5-    201110 203  0.0   0.2-
    
    Ephemeris:
    2020 VN1                 a,e,i = 0.98, 0.06, 3                   q = 0.9171
    Date    TT    R. A. (2000) Decl.     Delta      r    Elong.  Phase     V
    2020 10 11    12 43 54.7 -40 43 00   0.05054 0.9569    34.1   144.2    28.7
    ...
    2020 10 26    12 59 25.8 -45 38 03   0.02245 0.9760    35.8   143.4    26.8
    ...
    2020 11 03    14 17 08.6 -52 29 20   0.0084160.9853    37.6   142.1    24.5
    ...
    2020 11 09    22 21 53.6 +12 33 29   0.0043140.9923   113.6    66.2    18.3
    2020 11 10    22 56 53.6 +23 21 27   0.0057300.9934   122.8    57.0    18.6
    2020 11 11    23 20 04.8 +29 26 46   0.0073130.9945   127.5    52.2    19.0
    ...
    2020 11 17    00 16 46.0 +40 21 19   0.01764 1.0010   133.6    45.6    20.8
    ...
    2020 11 25    00 42 35.5 +43 03 54   0.03190 1.0090   132.8    45.9    22.1
    ...
    2020 12 10    01 12 14.2 +43 54 46   0.05944 1.0222   127.7    49.7    23.6
    
    M. P. C. Staff               (C) Copyright 2020 MPC           M.P.E.C. 2020-V65
    


    Read MPEC 2020-V64 Read MPEC 2020-V66


    MPEC number:

    Enter an MPEC number in one of the following forms:

    • 1997-B01 (the full form)
    • J97B01 (the packed version of the full form)
    • B01 (the abbreviated form)